Torna al catalogo

COSMOS 2251 DEB

AttivoLEO
NORAD 35883·DEBRIS·🇷🇺 Russia

Lanciato Jun 16, 1993 da Plesetsk Cosmodrome

Loading…

Prossimi Passaggi (prossime 24 ore)

TLE

In scadenzaSource: Space-Track

Epoca: Sep 12, 2026, 08:15 UTC

1 35883U 93036ATW 26255.34382472  .00000521  00000-0  13302-3 0  9991
2 35883  74.0212 275.0606 0083826 335.0753  37.3379 14.51079346663540

Traccia COSMOS 2251 DEB in tempo reale con AllMySat

Download on the App Store